Location: *
(33.3200°N, 8.3381°W)
Time: 19:02:30
(UTC+00:00)

CZ-2C R/B - Pass Details

Date: 09 April 2020
Orbit: 639 x 705 km, 98.4° (Epoch: 28 May)

Event Time Altitude Azimuth Distance (km) Brightness Sun altitude
Rises 20:29:48 0° 11° (N) 3,059 7.3 -18.8°
Reaches altitude 10° 20:32:04 10° 10° (N) 2,129 6.5 -19.2°
Maximum altitude 20:36:43 79° 285° (WNW) 688 3.8 -20.1°
Drops below altitude 10° 20:41:15 10° 198° (SSW) 2,074 6.2 -21.0°
Sets 20:43:26 0° 197° (SSW) 2,973 7.0 -21.4°
